Back to catalog

MOLNIYA 3-47

AliveCommunicationsHEO
NORAD 23642·PAYLOAD·🇷🇺 Russia

Launched Aug 9, 1995 from Plesetsk Cosmodrome

Loading…

Next Passes (next 24 hours)

TLE

FreshSource: Space-Track

Epoch: Sep 13, 2026, 03:54 UTC

1 23642U 95042A   26256.16299845  .00000993  00000-0  00000+0 0  9992
2 23642  64.8418 260.0270 6652882 268.2735  20.5236  2.01961329228291

Track MOLNIYA 3-47 in real time with AllMySat

Download on the App Store